Weather in Voinka

Russia / Republic of Crimea     45°52′14″N   33°59′19″E
temp.,
°C
wind,
m/s
gust,
m/s
humid.,
%
clouds,
%
prec.,
mm/h
press.,
hPa
HPBL,
m
16 september, thu
thu1600:00+17ne343996 0.0 101752
03:00+15nne333599 0.0 101727
06:00+13nne234481 0.0 101719
09:00+19nne453469 0.0 1017514
12:00+23nne55245 0.0 10181502
15:00+24nne45225 0.0 10171919
18:00+23n4627100 0.0 1017427
21:00+16nnw22500 0.0 101818
17 september, fri
fri1700:00+15n11530 0.0 101811
03:00+14nne11480 0.0 101810
06:00+13ne11510 0.0 101710
09:00+19e11357 0.0 1017298
12:00+25ne11225 0.0 10161530
15:00+26n11209 0.0 10142000
18:00+22ne4632100 0.0 1014323
21:00+17ese375090 0.0 1014132
18 september, sat
sat1800:00+16sw3550100 0.0 101468
03:00+16ssw3653100 0.0 101398
06:00+17s3547100 0.0 1012100
09:00+20sse4637100 0.0 1012369
12:00+23sw3425100 0.0 10121073
15:00+22sw5737100 0.0 1011581
18:00+19wsw4751100 0.0 1011410
21:00+17ese0175100 2.6 101147
19 september, sun
sun1900:00+18s235798 0.0 101150
03:00+17sse345779 0.0 101171
06:00+15s346165 0.0 101045
09:00+20ssw475741 0.0 1010425
12:00+23sw675698 0.3 10101255
15:00+27w454117 0.8 10092177
18:00+23wnw57575 0.0 1009495
21:00+18wsw49750 0.1 1010159
20 september, mon
mon2000:00+17wsw49730 0.0 1010155
03:00+16sw47757 0.0 1010112
06:00+17ssw3679100 0.0 1010125
09:00+21ssw4662100 0.0 1010364
12:00+17s61085100 0.6 1011520
15:00+19s5869100 0.9 1010729
18:00+17wnw3589100 1.8 1009206
21:00+16nw61084100 3.9 1011700